Location: Brunembert
(50.7122°N, 1.8935°E)
Time: 10:49:05
(UTC+00:00)

Meteor 2-3 Rocket - Pass Details

Date: 22 April 2021
Orbit: 841 x 886 km, 81.2° (Epoch: 05 May)

Event Time Altitude Azimuth Distance (km) Brightness Sun altitude
Rises 20:04:17 0° 349° (N) 3,490 7.7 -9.9°
Reaches altitude 10° 20:06:47 10° 353° (N) 2,542 6.8 -10.3°
Maximum altitude 20:12:31 62° 74° (ENE) 978 3.9 -11.0°
Enters shadow 20:17:47 12° 154° (SSE) 2,366 5.5 -11.7°
